Bardufoss

Airport
ICAO code: 
ENDU
Summary
ICAO Region: 
EUR
Territory: 
Location: 
Bardufoss,
Elevation: 
252 ft
Coordinates: 
Aerial View: 
69° 3' 20.885" N, 18° 32' 25.438" E
Airport CFIT: 
Altimeter Temperature Error Correction
Airport GND: 
Aircraft Ground De/Anti Icing
Airport RE: 
Landing on Contaminated Runways
Airport WX: 
Low Level Turbulence
Metar
Observation
ENDU 190120Z 28009KT 9000 -RASN FEW008 OVC025 03/01 Q0982 RMK WIND 1100FT 28015KT WIND 2200FT 27023G34KT
Station
Bardufoss
Date/Time
2022-01-19 01:20:00
Wind direction
280°
Wind speed
09 kts
Lowest cloud amount
few clouds
Temperature
3°C
Dew point
1°C
Humidity
86%
QNH
982 hPa
Weather condition
n/a

Description

Civil/Military (RNoAF) airport serving the Målselvdalen valley region of northern Norway.

Climatology

Subarctic climate (Köppen climate classification Dfc) - Although not far from the coast, Bardufoss and Målselvdalen is known for a somewhat more continental climate, and hence, colder winters (but with less humidity and little wind) compared to the coastal areas.

Runways

Designator Length Width Surface Rops
10/28 2443 45 ASP Yes/Yes
Airport map: 
Aerial View: 

SKYbrary Partners:

Safety knowledge contributed by: